Meteo Giornale » Osservazioni meteo Gran Bretagna » Barkston Heath Royal
ore: 17:50 - Osservazioni Meteo Barkston Heath Royal
Lat. 52° 58' N Lon. 0° 34' W Alt. 112 metri s.l.m.
20 °C
Poco Nuvoloso
Temp. 24 Ore
11 °C
22 °C
Ovest/Sud-Ovest
20.3 Km/h
Dew point 10 °C
Umidità 52 %
Visibilità 12 Km
Il sole sorge alle ore 06:12
Il sole tramonta alle ore 19:51
| Data e Ora | Cielo e Fenomeni | T °C | DP °C | Um. % | Pres. hPa | Vis. km | Vento km/h | |
|---|---|---|---|---|---|---|---|---|
| Oggi h: 17:50 | Poco Nuvoloso | 20 | 10 | 52 | 1018 | 12 | O/SO 20.3 | |
| Oggi h: 16:50 | Sereno | 21 | 10 | 49 | 1018 | 10 | O/SO 22.2 | |
| Oggi h: 15:50 | Sereno | 20 | 9 | 49 | 1018 | 10 | SO 18.5 | |
| Oggi h: 14:50 | Nuvoloso | 21 | 9 | 46 | 1018 | 10 | O/SO 22.2 | |
| Oggi h: 13:50 | Nuvoloso | 22 | 9 | 43 | 1018 | 10 | O/SO 24 | |
| Oggi h: 12:50 | Poco Nuvoloso | 21 | 9 | 46 | 1018 | 10 | SO 20.3 | |
| Oggi h: 11:50 | Poco Nuvoloso | 20 | 9 | 49 | 1019 | 10 | SO 22.2 | |
| Oggi h: 10:50 | Molto Nuvoloso | 19 | 10 | 55 | 1019 | 10 | O 22.2 | |
| Oggi h: 09:50 | Molto Nuvoloso | 18 | 10 | 59 | 1019 | 10 | O 18.5 | |
| Oggi h: 08:50 | Sereno | 16 | 11 | 72 | 1019 | 10 | O/SO 14.8 | |
| Oggi h: 07:50 | Sereno | 13 | 11 | 87 | 1019 | 10 | O/SO 14.8 | |
| Oggi h: 07:20 | Nuvoloso | 13 | 11 | 87 | 1019 | 11 | O/SO 16.7 | |
| Oggi h: 06:50 | Molto Nuvoloso | 12 | 11 | 93 | 1018 | 11 | O/SO 18.5 | |
| Oggi h: 06:20 | Coperto | 11 | 10 | 93 | 1018 | 11 | O/SO 16.7 | |
| Oggi h: 05:50 | Coperto | 12 | 10 | 87 | 1018 | 10 | O/SO 14.8 | |
| Oggi h: 05:20 | Molto Nuvoloso | 11 | 10 | 93 | 1018 | 10 | O/SO 14.8 | |
| Oggi h: 04:50 | Sereno | 12 | 10 | 87 | 1018 | 10 | O/SO 13 | |
| Oggi h: 04:20 | Sereno | 12 | 10 | 87 | 1018 | 10 | O/SO 14.8 | |
| Oggi h: 03:50 | Sereno | 12 | 10 | 87 | 1018 | 10 | O/SO 14.8 | |
| Oggi h: 03:20 | Sereno | 12 | 10 | 87 | 1018 | 10 | O/SO 14.8 | |
| Oggi h: 02:50 | Nuvoloso | 13 | 11 | 87 | 1018 | 10 | O/SO 16.7 | |
| Oggi h: 02:20 | Coperto | 13 | 11 | 87 | 1018 | 10 | O 18.5 | |
| Oggi h: 01:50 | Coperto | 13 | 11 | 87 | 1018 | 10 | O/SO 16.7 | |
| Oggi h: 01:20 | Nuvoloso | 13 | 11 | 87 | 1017 | 10 | O/SO 14.8 | |
| Oggi h: 00:50 | Coperto | 13 | 11 | 87 | 1017 | 0 | O/SO 14.8 | |
| Oggi h: 00:20 | Coperto | 13 | 11 | 87 | 1017 | 0 | O/SO 13 | |
| Ieri h: 23:50 | Coperto | 13 | 11 | 87 | 1017 | 0 | O/SO 13 | |
| Ieri h: 23:20 | Coperto | 13 | 11 | 87 | 1017 | 0 | O/SO 14.8 | |
| Ieri h: 22:50 | Molto Nuvoloso | 14 | 11 | 82 | 1017 | 0 | O 16.7 | |
| Ieri h: 22:20 | Poco Nuvoloso | 14 | 11 | 82 | 1017 | 0 | O 13 | |
| Ieri h: 21:50 | Poco Nuvoloso | 14 | 11 | 82 | 1017 | 0 | O/NO 14.8 | |
| Ieri h: 21:20 | Molto Nuvoloso | 14 | 11 | 82 | 1016 | 0 | O 16.7 | |
| Ieri h: 20:50 | Sereno | 15 | 11 | 76 | 1016 | 0 | O 18.5 | |
| Ieri h: 20:20 | Coperto | 15 | 10 | 72 | 1016 | 0 | O 16.7 | |
| Ieri h: 19:50 | Nuvoloso | 16 | 10 | 67 | 1015 | 0 | O 25.9 | |



